Location: Unspecified
(0.0000°N, 0.0000°E)
Time: 18:45:58
(UTC+00:00)

Courier 1B - All Passes

Search period start: 10 August 2020 00:00
Search period end: 20 August 2020 00:00
Orbit: 962 x 1209 km, 28.3° (Epoch: 09 August)

Date Brightness Start Highest point End Pass type
(mag) Time Alt. Az. Time Alt. Az. Time Alt. Az.
10 Aug - 01:33:47 10° NW 01:39:43 38° NNE 01:45:44 10° E night (unlit)
10 Aug - 03:27:24 10° WNW 03:33:45 57° SSW 03:40:22 10° SE visible
10 Aug - 05:24:08 10° WSW 05:28:19 17° SSW 05:32:37 10° SSE visible
10 Aug - 11:14:20 10° S 11:17:40 13° SSE 11:21:01 10° SE daylight
10 Aug - 13:05:45 10° SW 13:12:55 38° SSE 13:20:04 10° E daylight
10 Aug - 14:59:36 10° WSW 15:07:27 71° NNW 15:15:04 10° NE daylight
10 Aug - 16:56:20 10° WNW 17:02:04 22° NNW 17:07:37 10° NNE daylight
11 Aug - 00:40:30 10° NNW 00:45:55 27° NNE 00:51:18 10° E night (unlit)
11 Aug - 02:33:32 10° WNW 02:40:00 80° SSW 02:46:38 10° ESE visible
11 Aug - 04:29:17 10° WSW 04:34:17 23° SSW 04:39:27 10° SSE visible
11 Aug - 12:12:17 10° SSW 12:18:48 29° SSE 12:25:21 10° E daylight
11 Aug - 14:05:31 10° WSW 14:13:26 87° SSE 14:21:13 10° ENE daylight
11 Aug - 16:01:19 10° W 16:07:58 30° NNW 16:14:25 10° NNE daylight
11 Aug - 23:47:23 10° NNW 23:52:01 20° NNE 23:56:34 10° ENE night (unlit)
12 Aug - 01:39:48 10° NW 01:46:16 73° NNE 01:52:47 10° ESE night (unlit)
12 Aug - 03:34:45 10° W 03:40:22 31° SSW 03:46:09 10° SSE visible
12 Aug - 11:19:02 10° SSW 11:24:38 21° SSE 11:30:19 10° ESE daylight
12 Aug - 13:11:39 10° SW 13:19:25 65° SSE 13:27:11 10° ENE daylight
12 Aug - 15:06:37 10° W 15:13:54 41° NNW 15:21:02 10° NE daylight
12 Aug - 17:05:30 10° NW 17:08:58 13° NNW 17:12:22 10° N daylight
12 Aug - 22:54:30 10° N 22:58:00 15° NNE 23:01:28 10° NE night (unlit)
13 Aug - 00:46:13 10° NW 00:52:31 51° NNE 00:58:47 10° ESE night (unlit)
13 Aug - 02:40:29 10° W 02:46:32 42° SSW 02:52:43 10° SE visible
13 Aug - 04:38:32 10° SW 04:41:14 13° SSW 04:44:00 10° S visible
13 Aug - 10:26:04 10° SSW 10:30:25 16° SSE 10:34:50 10° ESE daylight
13 Aug - 12:17:57 10° SW 12:25:22 48° SSE 12:32:53 10° ENE daylight
13 Aug - 14:12:11 10° WSW 14:19:51 56° NNW 14:27:27 10° NE daylight
13 Aug - 16:09:40 10° WNW 16:14:43 18° NNW 16:19:41 10° NNE daylight
13 Aug - 22:02:16 10° N 22:03:53 11° NNE 22:05:29 10° NE visible
13 Aug - 23:52:45 10° NW 23:58:45 36° NNE 00:04:36 10° E night (unlit)
14 Aug - 01:46:24 10° WNW 01:52:47 60° SSW 01:59:12 10° SE night (unlit)
14 Aug - 03:43:07 10° WSW 03:47:10 17° SSW 03:51:18 10° SSE visible
14 Aug - 09:33:47 10° S 09:36:07 11° SSE 09:38:29 10° SE daylight
14 Aug - 11:24:27 10° SW 11:31:19 36° SSE 11:38:21 10° E daylight
14 Aug - 13:18:01 10° WSW 13:25:49 75° NNW 13:33:40 10° NE daylight
14 Aug - 15:14:23 10° WNW 15:20:31 25° NNW 15:26:34 10° NNE daylight
14 Aug - 22:59:23 10° NNW 23:04:53 26° NNE 23:10:12 10° E night (unlit)
15 Aug - 00:52:29 10° WNW 00:59:03 85° SSW 01:05:33 10° ESE night (unlit)
15 Aug - 02:48:14 10° WSW 02:53:13 23° SSW 02:58:17 10° SSE visible
15 Aug - 10:31:09 10° SSW 10:37:14 26° SSE 10:43:30 10° E daylight
15 Aug - 12:24:05 10° WSW 12:31:48 82° SSE 12:39:42 10° ENE daylight
15 Aug - 14:19:31 10° W 14:26:22 33° NNW 14:33:13 10° NNE daylight
15 Aug - 16:19:46 10° NW 16:21:46 11° NNW 16:23:44 10° N daylight
15 Aug - 22:06:09 10° NNW 22:10:55 20° NNE 22:15:32 10° ENE visible
15 Aug - 23:58:41 10° NW 00:05:19 68° NNE 00:11:45 10° ESE night (unlit)
16 Aug - 01:53:40 10° W 01:59:22 32° SSW 02:05:04 10° SSE night (unlit)
16 Aug - 09:38:05 10° SSW 09:43:07 19° SSE 09:48:17 10° ESE daylight
16 Aug - 11:30:20 10° SW 11:37:48 61° SSE 11:45:32 10° ENE daylight
16 Aug - 13:24:58 10° W 13:32:17 44° NNW 13:39:40 10° NE daylight
16 Aug - 15:23:16 10° NW 15:27:25 15° NNW 15:31:31 10° N daylight
16 Aug - 21:13:06 10° N 21:16:50 15° NNE 21:20:28 10° NE visible
16 Aug - 23:05:01 10° NW 23:11:32 48° NNE 23:17:48 10° ESE night (unlit)
17 Aug - 00:59:19 10° WNW 01:05:35 45° SSW 01:11:44 10° SE night (unlit)
17 Aug - 02:57:21 10° SW 03:00:07 13° SSW 03:02:54 10° S night (unlit)
17 Aug - 08:45:26 10° S 08:48:57 14° SSE 08:52:31 10° SE daylight
17 Aug - 10:36:47 10° SW 10:43:48 44° SSE 10:51:07 10° E daylight
17 Aug - 12:30:42 10° WSW 12:38:14 59° NNW 12:45:57 10° NE daylight
17 Aug - 14:27:43 10° WNW 14:33:07 20° NNW 14:38:31 10° NNE daylight
17 Aug - 20:20:32 10° N 20:22:38 11° NNE 20:24:41 10° NE visible
17 Aug - 22:11:27 10° NW 22:17:41 35° NNE 22:23:39 10° E visible
18 Aug - 00:05:10 10° WNW 00:11:50 65° SSW 00:18:16 10° SE night (unlit)
18 Aug - 02:01:52 10° WSW 02:06:07 18° SSW 02:10:19 10° SSE night (unlit)
18 Aug - 09:43:26 10° SSW 09:49:48 32° SSE 09:56:28 10° E daylight
18 Aug - 11:36:41 10° WSW 11:44:13 80° NNW 11:52:04 10° NE daylight
18 Aug - 13:32:40 10° W 13:38:54 26° NNW 13:45:14 10° NNE daylight
18 Aug - 21:17:58 10° NNW 21:23:45 26° NNE 21:29:14 10° E visible
18 Aug - 23:11:10 10° WNW 23:18:04 89° NNE 23:24:38 10° ESE night (unlit)
19 Aug - 01:06:57 10° W 01:12:12 25° SSW 01:17:23 10° SSE night (unlit)
19 Aug - 08:50:18 10° SSW 08:55:47 23° SSE 09:01:30 10° ESE daylight
19 Aug - 10:42:53 10° SW 10:50:15 77° SSE 10:58:00 10° ENE daylight
19 Aug - 12:37:58 10° W 12:44:46 34° NNW 12:51:44 10° NE daylight
19 Aug - 14:37:23 10° NW 14:40:10 12° NNW 14:42:57 10° N daylight
19 Aug - 20:24:38 10° NNW 20:29:41 20° NNE 20:34:33 10° ENE visible
19 Aug - 22:17:18 10° NW 22:24:16 65° NNE 22:30:52 10° ESE visible
